カタログに戻る

OPS 3165

運用中軍事GEO
NORAD 8482·PAYLOAD·🇺🇸 United States

打ち上げ Dec 14, 1975 から Cape Canaveral Space Force Station

Loading…

TLE

最新Source: Space-Track

元期: Sep 14, 2026, 15:06 UTC

1 08482U 75118A   26257.62931633 -.00000168  00000-0  00000-0 0  9995
2 08482   2.0732 255.2268 0033318  28.8273  86.3499  1.00456933 27353

AllMySatでOPS 3165をリアルタイム追跡

Download on the App Store